#timestamp,LO_Frequency,Hit,StdDev 
1611306015.2,286047000.2,N
1611306035.1,286047002.3,N
1611306036.0,286047002.3,N
1611306055.8,286046998.6,N
1611306075.6,286046998.4,N
1611306095.5,286046997.2,N
1611306115.3,286046997.1,N
1611306135.2,286046997.3,N
1611306155.9,286046995.6,N
1611306175.7,286046995.8,N
1611306195.6,286046993.9,N
1611306215.4,286046994.6,N
1611306235.2,286046993.5,N
1611306255.1,286046994.8,N
1611306256.0,286046994.8,N
1611306275.8,286046994.1,N
1611306295.7,286046994.1,N
1611306315.5,286046992.1,N
1611306335.3,286046992.5,N
1611306355.2,286046992.7,N
1611306375.0,286046990.1,N
1611306375.9,286046990.1,N
1611306395.7,286046993.0,N
1611306415.6,286046992.8,N
1611306435.4,286046994.1,N
1611306455.3,286046994.6,N
1611306475.1,286046992.6,N
1611306476.0,286046992.6,N
1611306495.8,286046992.1,N
1611306515.7,286046994.4,N
1611306535.5,286046994.4,N
1611306555.4,286046994.2,N
1611306575.2,286046994.6,N
1611306595.0,286046993.6,Y
1611306595.9,286046993.6,P
1611306615.8,286047000.0,N
1611306635.6,286047002.4,N
1611306655.5,286047004.0,N
1611306675.3,286047002.4,N
1611306695.1,286047002.0,N
1611306715.9,286047002.7,N
1611306735.7,286047000.7,N
1611306755.5,286047001.9,N
1611306775.4,286046999.7,N
1611306795.2,286046998.6,N
1611306815.0,286047000.7,N
1611306816.0,286047000.7,N
1611306835.8,286047000.9,N
1611306855.6,286046999.7,N
1611306875.5,286047011.9,Y
1611306895.3,286046999.8,P
1611306915.1,286047001.9,P
1611306935.9,286047002.1,N
1611306955.7,286047001.5,N
1611306975.6,286047001.4,N
1611306995.4,286047004.3,Y
1611307015.2,286047002.3,P
1611307035.1,286047000.6,N
1611307036.0,286047000.6,N
1611307055.8,286047000.7,N
1611307075.6,286047000.3,N
1611307095.5,286047000.9,N
1611307115.3,286047000.7,N
1611307135.2,286047000.6,N
1611307155.9,286047000.9,N
1611307175.7,286047000.6,N
1611307195.6,286047000.0,N
1611307215.4,286047000.7,N
1611307235.2,286047000.5,N
1611307255.1,286047002.7,Y
1611307256.0,286047002.7,P
1611307275.8,286047002.3,N
1611307295.7,286047011.9,P
1611307315.5,286047004.4,N
1611307335.3,286047003.6,N
1611307355.2,286047003.9,N
1611307375.0,286047004.0,N
1611307375.9,286047004.0,N
1611307395.8,286047002.4,N
1611307415.6,286047004.1,N
1611307435.4,286047003.9,N
1611307455.3,286047002.0,N
1611307475.1,286047002.1,N
1611307495.8,286047003.8,N
1611307515.7,286047002.3,N
1611307535.5,286047003.9,N
1611307555.4,286047005.2,N
1611307575.2,286047007.6,Y
1611307595.0,286047001.7,P
1611307595.9,286047001.7,N
1611307615.8,286047003.3,P
1611307635.6,286047002.9,Y
1611307655.4,286047002.6,P
1611307675.3,286047001.0,P
1611307695.1,286047001.1,N
1611307715.9,286047000.8,N
1611307735.7,286046999.4,N
1611307755.5,286047002.4,N
1611307775.4,286047002.2,N
1611307795.2,286047005.7,Y
1611307815.0,286047005.6,P
1611307816.0,286047005.6,N
1611307835.8,286047004.7,N
1611307855.6,286047008.7,Y
1611307875.5,286047002.0,P
1611307895.3,286047004.4,P
1611307915.1,286047003.9,P
1611307935.9,286047004.3,Y
1611307955.7,286046999.8,P
1611307975.6,286046999.5,N
1611307995.4,286047000.8,N
1611308015.2,286047002.2,N
1611308035.1,286047002.5,N
1611308036.0,286047002.5,N
1611308055.8,286047004.0,N
1611308075.6,286047003.7,N
1611308095.5,286047002.6,N
1611308115.3,286047000.6,N
1611308135.2,286046998.7,N
1611308155.9,286046997.0,N
1611308175.7,286046997.4,N
1611308195.6,286046996.7,N
1611308215.4,286046999.3,N
1611308235.3,286046999.4,N
1611308255.1,286046999.1,N
1611308256.0,286046999.1,N
1611308275.8,286046998.9,N
1611308295.7,286046996.9,N
1611308315.5,286047001.2,N
1611308335.3,286046998.9,N
1611308355.2,286046998.5,N
1611308375.0,286047001.2,N
1611308375.9,286047001.2,N
1611308395.8,286046999.5,N
1611308415.6,286046996.7,N
1611308435.4,286046995.1,N
1611308455.3,286046996.4,N
1611308475.1,286046991.7,Y
1611308495.9,286046992.5,P
1611308515.7,286046992.6,N
1611308535.5,286046992.1,N
1611308555.4,286046992.9,N
1611308575.2,286046992.9,N
1611308595.0,286046993.1,N
1611308595.9,286046993.1,N
1611308615.8,286046990.4,Y
1611308635.6,286046996.6,P
1611308655.5,286046995.1,P
1611308675.3,286046996.2,P
1611308695.1,286046996.1,Y
1611308715.9,286046998.3,P
1611308735.7,286046998.1,N
1611308755.5,286047002.5,N
1611308775.4,286047002.2,N
1611308795.2,286047002.7,N
1611308815.1,286047002.1,N
1611308816.0,286047002.1,N
1611308835.8,286047000.2,N
1611308855.6,286047002.8,N
1611308875.5,286047000.8,N
1611308895.3,286047000.1,N
1611308915.2,286047004.0,N
1611308935.9,286047004.3,N
1611308955.7,286047004.7,N
1611308975.6,286047003.2,N
1611308995.4,286047003.7,N
1611309015.2,286047001.6,N
1611309035.1,286047003.1,N
1611309036.0,286047003.1,N
1611309055.8,286047004.2,N
1611309075.7,286047005.0,N
1611309095.5,286047007.6,Y
1611309115.3,286047005.6,P
1611309135.2,286047001.6,N
1611309155.0,286047002.7,N
1611309155.9,286047002.7,N
1611309175.8,286047002.0,N
1611309195.6,286047006.0,Y
1611309215.4,286047001.0,P
1611309235.3,286046998.5,N
1611309255.1,286046996.7,N
1611309275.8,286046997.6,N
1611309295.7,286046997.0,N
1611309315.5,286046999.0,N
1611309335.4,286046998.7,N
1611309355.2,286046998.5,N
1611309375.0,286046996.6,N
1611309375.9,286046996.6,N
1611309395.8,286046998.6,N
1611309415.6,286046998.7,N
1611309435.4,286047002.8,N
1611309455.3,286047000.9,N
1611309475.1,286047000.3,N
1611309495.9,286047000.2,N
1611309515.7,286047001.5,N
1611309535.5,286047004.3,N
1611309555.4,286047004.2,N
1611309575.2,286047005.6,N
1611309595.0,286047003.7,N
1611309595.9,286047003.7,N
